Back to catalog

STARLINK-2714

AliveCommunicationsVLEO
NORAD 48603·PAYLOAD·🇺🇸 United States

Launched May 15, 2021 from Cape Canaveral Space Force Station

Loading…

Next Passes (next 24 hours)

TLE

FreshSource: CelesTrak SupGP

Epoch: Sep 14, 2026, 22:05 UTC

1 48603C 21041BC  26257.92062500  .00003804  00000+0  12234-3 0  2571
2 48603  53.1591 314.8329 0001127  77.7924 154.6957 15.31699625    19

Track STARLINK-2714 in real time with AllMySat

Download on the App Store